Regional Weather Roundup
Issued by NWS

Home | Current Version | Previous Version | Graphics & Text | Print | Product List | Glossary On
Versions: 1 2 3 4 5 6 7 8 9 10 11 12 13 14 15 16 17 18 19 20 21 22 23 24 25 26 27 28 29 30 31 32 33 34 35 36 37 38 39 40 41 42 43 44 45 46 47 48 49 50
574
ASUS43 KIND 120509
RWRIN

WEATHER ROUNDUP FOR INDIANA
NATIONAL WEATHER SERVICE INDIANAPOLIS IN
1200 AM EST FRI FEB 12 2016

NOTE: "FAIR" INDICATES FEW OR NO CLOUDS BELOW 12,000 FEET WITH NO
SIGNIFICANT WEATHER AND/OR OBSTRUCTIONS TO VISIBILITY.

* - STATION DOES NOT REPORT WEATHER SUCH AS PRECIPITATION OR FOG.

+ - STATION NOT QUALITY CONTROLLED BY THE NATIONAL WEATHER SERVICE.
    USE DATA WITH CAUTION...ESPECIALLY DEWPOINT AND RELATIVE
    HUMIDITY OBSERVATIONS.

INZ001>003-010>013-019-020-120600-
NORTHWEST INDIANA

CITY           SKY/WX    TMP DP  RH WIND       PRES   REMARKS
GARY /AIRPORT/ CLOUDY    17   7  63 CALM      30.27F
KNOX *+        CLOUDY     9   7  92 CALM      30.27S
LA PORTE +     PTCLDY     1  -2  87 CALM      30.26F
MICHIGAN CITY+ CLOUDY     7   3  85 S3        30.27S
MONTICELLO +   MOCLDY    16   7  66 CALM      30.27S
RENSSELAER +   CLOUDY    21   9  58 CALM      30.27F
VALPARAISO     CLOUDY    10   6  84 CALM      30.26F

$$

LMZ046-743>745-120600-
SOUTHERN LAKE MICHIGAN

STATION/POSITION TIME  TEMP    WIND        PRES    WAVE
                       AIR SEA DIR/SP/G            HT
                 (UTC) (F)     (DEG/KT/KT) (MB)    (FT)
BURNS HARBOR     0400   18     210/  6/  8 1025.7S
MICHIGAN CITY    0400   17     170/ 10/ 11   N/A

$$

INZ004-005-014>016-021>024-120600-
NORTH CENTRAL INDIANA

CITY           SKY/WX    TMP DP  RH WIND       PRES   REMARKS
GOSHEN         PTCLDY     5   1  83 CALM      30.26S
LOGANSPORT +   CLOUDY    18   7  62 CALM      30.28S
PERU/GRISSOM   CLOUDY    14   9  81 SW5       30.24F WCI   6
ROCHESTER +    CLEAR     12   3  67 CALM      30.27S
SOUTH BEND     CLOUDY     2  -2  83 SW3       30.26F
WARSAW +       CLOUDY     9   5  85 CALM      30.26S

$$

INZ006>009-017-018-025>027-120600-
NORTHEAST INDIANA

CITY           SKY/WX    TMP DP  RH WIND       PRES   REMARKS
ANGOLA *+      CLEAR      7   3  85 CALM      30.22F
AUBURN +       CLEAR     14   7  73 CALM      30.25F
FORT WAYNE     PTCLDY    12   7  80 SW6       30.27F WCI   3
HUNTINGTON +   CLOUDY    10   5  80 CALM      30.26F

$$

INZ028-029-035-036-043>045-051>053-120600-
WEST CENTRAL INDIANA

CITY           SKY/WX    TMP DP  RH WIND       PRES   REMARKS
GREENCASTLE +  CLOUDY    21  10  63 CALM      30.27F
LAFAYETTE      CLOUDY    20  11  68 CALM      30.28F
TERRE HAUTE    PTCLDY    22  14  71 CALM      30.29F

$$

INZ030>032-037>040-046>048-054>057-064-065-120600-
CENTRAL INDIANA

CITY           SKY/WX    TMP DP  RH WIND       PRES   REMARKS
FISHERS *+     PTCLDY    19  14  79 CALM      30.26F
FRANKFORT +    CLOUDY    20   7  57 CALM      30.28S
GREENWOOD *+   PTCLDY    19  12  73 CALM      30.27F
INDIANAPOLIS   CLOUDY    20  10  65 SW3       30.26F
-EAGLE CREEK   CLOUDY    20  10  65 CALM      30.26F
KOKOMO *+      CLOUDY    12   7  79 CALM      30.26F
MARION +       CLOUDY    12   2  64 CALM      30.27F
MT COMFORT *+  MOCLDY    19  10  68 S5        30.27S WCI  13
SHELBYVILLE    CLOUDY    19  10  68 CALM      30.27F
ZIONSVILLE +   CLOUDY    19  11  71 CALM      30.26F

$$

INZ033-034-041-042-049-050-058-059-120600-
EAST CENTRAL INDIANA

CITY           SKY/WX    TMP DP  RH WIND       PRES   REMARKS
MUNCIE         CLOUDY    14   7  73 CALM      30.26F

$$

INZ060-061-067>069-081>083-085>088-120600-
SOUTHWEST INDIANA

CITY           SKY/WX    TMP DP  RH WIND       PRES   REMARKS
EVANSVILLE     CLOUDY    29  16  58 CALM      30.30R
HUNTINGBURG *+ CLOUDY    25  12  58 N6        30.28F WCI  18
WASHINGTON +   CLOUDY    25  12  57 CALM      30.29S

$$

INZ062-063-066-070>080-084-089>092-120600-
SOUTH CENTRAL AND SOUTHEAST INDIANA

CITY           SKY/WX    TMP DP  RH WIND       PRES   REMARKS
BLOOMINGTON    CLOUDY    22  11  62 E5        30.26F WCI  16
MADISON *+     CLOUDY    23   9  54 CALM      30.29S
NORTH VERNON + CLOUDY    21  10  63 CALM      30.28F
SEYMOUR +      CLOUDY    25  10  54 CALM      30.28F

$$





USA.gov is the U.S. government's official web portal to all federal, state and local government web resources and services.